Dewpoint
32 28 28 28 28 24 21 22 21 22 25 28 28 27 27 30 36 35 34 34 33 33 34 34 33 31 28 25 25 27 27 26 29 30 29 29 29 30 32 32 32 30 33 34
30 28 26 30 30 28 25 22 21 24 26 27 27 27 28 31 34 35 34 33 33 33 33 34 33 30 28 25 24 25 26 27 28 30 30 30 29 30 31 34 34 32 32 33
28 29 32 30 30 28 26 23 22 21 25 26 26 26 26 29 30 32 34 33 33 32 32 34 32 30 28 25 24 23 25 27 30 30 32 32 32 32 32 33 32 32 33 33
30 30 28 30 27 26 23 27 25 25 23 20 25 17 21 24 25 28 30 32 34 33 32 34 32 30 26 26 25 24 26 27 29 31 31 30 31 29 31 31 32 32 31 30
26 27 29 28 26 25 24 29 27 26 23 25 22 21 25 22 21 21 22 25 32 34 33 33 33 29 26 25 25 25 25 28 29 30 32 31 31 32 32 32 30 29 30 31
27 30 27 26 26 26 28 28 29 31 26 21 21 21 16 18 19 19 18 21 25 34 33 33 33 29 25 24 25 26 26 27 29 30 31 31 30 31 32 31 31 31 32 33
22 21 27 26 25 31 28 24 20 20 22 19 21 21 18 16 17 19 18 20 26 34 33 34 32 29 26 25 25 27 27 28 28 29 30 31 31 30 30 30 30 30 31 31
21 15 26 26 24 24 27 23 21 16 18 14 24 20 16 22 19 18 21 23 26 34 33 34 33 31 27 25 25 26 26 27 27 28 30 30 31 32 31 30 32 31 31 30
21 23 26 26 25 25 24 25 23 17 19 18 21 23 19 23 22 23 23 23 29 34 33 34 33 31 29 26 25 26 27 27 27 28 29 28 27 28 31 31 30 31 30 31
24 21 23 24 28 28 25 26 23 24 17 15 16 16 16 17 17 19 23 26 29 34 34 34 33 32 29 27 26 26 27 27 28 28 28 27 25 25 27 28 29 30 30 31
29 26 26 27 25 23 26 25 26 25 23 17 15 16 20 17 18 17 19 24 28 33 34 34 34 33 30 26 27 28 28 28 29 29 28 26 25 23 23 25 26 27 28 29
41 40 31 27 26 26 24 23 23 23 20 22 19 17 18 18 18 19 19 22 29 34 35 34 33 33 31 28 28 28 28 29 30 30 28 26 25 24 23 23 24 26 26 28
41 39 34 32 31 30 28 28 26 24 23 21 20 20 22 22 21 19 21 23 27 32 35 34 32 32 32 30 29 29 29 29 30 30 28 27 24 24 23 23 24 25 26 27
41 38 37 33 35 35 33 32 35 33 26 23 22 22 23 21 20 21 21 22 23 29 34 34 32 31 32 31 30 29 30 30 30 29 27 25 23 23 24 24 25 25 26 27
39 34 33 34 31 31 30 29 30 33 32 29 31 29 25 25 25 24 23 21 23 27 33 34 33 31 31 31 30 30 30 29 29 27 26 24 23 24 24 25 26 26 26 26
37 28 30 29 29 27 24 27 30 32 28 31 33 32 32 28 26 25 24 20 21 24 29 33 33 31 29 29 30 28 27 27 26 25 24 23 24 24 25 25 25 25 26 28
29 30 26 22 23 23 22 23 27 25 26 30 32 38 35 34 34 28 26 26 22 21 25 30 33 31 30 29 29 26 25 25 23 22 22 23 24 25 25 25 25 26 26 27
30 29 28 24 24 19 23 25 26 26 26 36 39 39 38 38 37 36 33 28 27 23 24 28 31 32 31 29 28 26 24 23 22 21 21 21 23 25 25 24 25 26 27 27
31 33 30 26 23 25 26 26 34 35 35 36 36 38 37 37 37 35 34 36 33 28 26 27 30 32 30 28 26 25 23 22 21 20 19 21 22 22 23 25 26 27 27 27
25 31 29 23 15 15 17 28 35 37 29 39 39 37 37 37 32 35 39 39 39 34 31 28 30 31 28 26 24 23 23 21 19 19 20 21 22 23 25 26 26 27 28 28
26 27 26 26 24 27 32 34 36 23 29 39 38 36 37 37 38 41 43 42 35 32 32 32 32 30 27 25 24 23 21 20 20 22 23 23 23 24 26 26 27 27 27 28
26 25 23 25 23 16 37 26 25 30 36 39 37 35 39 41 42 43 44 41 32 32 34 32 29 27 23 23 22 22 20 23 24 24 25 24 25 25 26 26 26 26 27 26
22 26 24 27 22 27 29 28 32 33 29 35 35 36 42 41 43 45 43 42 28 30 30 29 26 23 23 22 22 20 23 24 25 25 24 24 25 25 26 26 25 26 26 27
26 28 29 31 29 27 27 27 28 28 32 35 35 36 42 41 43 44 42 43 32 28 27 26 24 23 22 22 21 22 24 25 24 23 24 25 25 26 25 26 26 26 27 27
28 28 26 26 26 26 27 26 27 30 31 30 32 32 35 42 44 43 43 43 42 26 26 26 24 23 23 23 23 23 25 25 23 22 23 25 26 29 27 26 26 26 27 28
29 27 27 25 26 25 24 26 28 30 30 28 28 29 35 41 43 44 44 45 44 27 25 25 24 24 23 23 23 25 27 24 23 23 25 26 27 27 28 28 29 33 36 37
Lifted_Index
8 6 5 6 7 7 6 6 5 6 7 7 7 6 7 8 8 8 8 8 9 9 10 10 11 11 11 12 12 12 12 12 12 12 12 12 12 12 13 15 17 18 19 20
7 6 6 6 7 7 6 5 5 6 7 8 7 6 7 8 8 8 8 8 9 9 9 10 10 10 11 11 12 12 12 12 12 13 13 12 12 12 13 15 17 18 19 19
7 7 7 7 7 6 5 5 5 5 6 7 7 6 6 7 8 8 8 8 8 8 9 9 9 9 10 10 11 11 12 12 12 13 13 12 12 12 13 15 17 18 19 19
7 7 7 7 6 6 5 5 6 6 6 6 5 5 6 7 7 7 7 7 7 7 8 8 8 8 9 9 10 11 11 12 12 13 13 12 12 12 13 15 17 18 19 19
8 8 8 7 7 6 6 7 7 7 6 5 5 4 5 6 6 6 6 7 6 6 7 7 8 8 8 9 10 10 11 11 12 13 13 12 11 12 13 15 17 18 19 19
8 8 8 8 7 7 7 7 6 6 5 4 4 4 4 5 6 6 6 6 6 6 6 7 7 7 7 8 9 10 10 11 12 13 13 12 12 12 13 15 16 18 19 19
7 7 8 8 8 7 6 5 4 3 2 3 4 4 4 6 7 7 7 6 6 5 5 6 6 6 7 7 8 9 10 10 12 12 12 12 12 13 14 15 16 18 18 19
6 6 7 7 7 6 6 4 3 2 1 2 4 5 5 7 7 7 7 6 5 5 5 5 6 6 7 7 8 9 9 10 11 12 12 12 13 13 14 16 17 18 18 19
6 6 7 7 7 6 6 5 4 2 2 2 4 5 6 7 7 7 6 6 5 5 5 5 5 6 7 7 8 9 9 10 11 12 13 13 13 14 15 16 18 18 19 19
7 7 7 7 6 6 5 5 4 3 2 2 3 4 5 6 6 6 5 5 5 4 4 5 5 6 7 8 8 9 9 10 11 12 13 13 14 14 15 17 18 18 19 19
6 6 7 6 6 5 4 4 3 3 2 2 2 4 5 6 6 5 5 5 4 4 4 4 5 6 7 8 8 9 9 10 11 12 13 13 14 15 16 17 18 19 19 19
5 5 5 6 5 4 3 2 2 2 2 2 2 4 6 6 6 5 5 4 4 4 4 4 5 6 7 8 8 9 9 10 11 12 12 13 14 15 15 16 18 18 19 19
4 3 3 3 3 2 1 1 1 1 1 1 2 4 5 6 5 4 4 4 3 3 3 4 5 6 7 7 8 8 9 10 11 12 12 13 14 15 15 16 18 18 19 19
3 2 2 2 2 1 1 1 1 1 1 1 1 3 4 4 4 4 3 3 3 3 3 3 4 5 6 6 7 8 9 10 11 12 12 12 13 15 16 17 18 18 19 19
2 2 2 3 3 3 3 3 3 2 1 1 1 2 4 4 3 3 3 3 3 3 3 4 4 5 5 6 7 8 9 10 11 11 12 12 14 15 16 17 18 18 18 19
2 2 2 3 4 5 4 5 5 4 3 2 1 2 3 3 3 3 2 2 2 3 3 3 4 5 5 6 6 7 8 10 11 11 12 13 14 15 16 17 18 18 18 18
2 1 1 2 3 4 4 4 4 4 4 3 2 2 2 3 3 3 3 2 2 2 2 3 3 4 5 5 6 7 8 9 10 11 12 13 14 15 16 17 18 18 18 18
1 0 0 1 1 2 2 3 2 2 2 2 2 3 3 2 3 3 3 3 3 2 2 2 3 4 5 5 6 7 8 9 10 11 12 13 14 15 16 17 18 18 18 18
-0 -0 -0 -0 0 1 1 1 0 -0 1 2 3 3 3 3 3 3 3 3 2 2 2 2 2 3 4 5 6 7 8 9 10 11 12 13 14 15 16 17 18 18 18 18
0 -0 -0 -0 0 0 1 0 -0 -0 1 2 3 4 4 4 4 4 4 3 3 2 3 3 2 2 4 5 6 7 8 9 10 11 12 14 15 16 17 18 18 18 18 18
0 0 0 0 0 0 0 0 1 1 1 2 3 4 5 5 5 6 6 5 3 2 2 3 2 3 4 5 6 7 8 9 10 12 13 14 15 16 17 18 18 18 18 18
0 0 0 0 0 0 0 1 2 2 2 2 2 4 5 5 6 6 6 6 4 3 2 3 3 4 5 6 7 8 9 10 11 12 13 15 16 17 18 18 17 17 17 17
0 0 0 0 1 1 1 1 2 2 2 2 2 3 4 5 5 5 5 6 5 4 3 4 4 5 6 7 8 9 10 11 12 13 14 16 17 17 18 17 17 17 17 17
1 0 0 0 1 1 1 1 2 2 2 2 3 3 4 4 5 5 5 6 6 6 5 5 5 5 6 8 9 10 11 12 13 14 15 16 17 17 17 17 17 17 17 17
1 0 0 1 1 1 1 2 2 2 2 3 3 3 4 4 4 5 5 6 7 8 7 6 6 6 7 9 10 11 13 13 14 15 16 17 17 17 17 17 17 17 17 16
0 0 1 1 1 1 2 2 2 2 2 3 3 4 4 3 4 4 5 6 7 8 8 7 7 8 9 9 10 12 13 14 15 16 16 17 17 17 17 17 17 17 16 16